Regional Weather Roundup
Issued by NWS Northern Indiana

Home | Current Version | Previous Version | Text Only | Print | Product List | Glossary Off
Versions: 1 2 3 4 5 6 7 8 9 10 11 12 13 14 15 16 17 18 19 20 21 22 23 24 25 26 27 28 29 30 31 32 33 34 35 36 37 38 39 40 41 42 43 44 45 46 47 48 49 50

000
ASUS43 KIWX 051110
RWRIWX

KIWX WEATHER ROUNDUP
NATIONAL WEATHER SERVICE NORTHERN INDIANA
700 AM EDT THU MAY 05 2016

NOTE: "FAIR" INDICATES FEW OR NO CLOUDS BELOW 12,000 FEET WITH NO
SIGNIFICANT WEATHER AND/OR OBSTRUCTIONS TO VISIBILITY.

* THESE STATIONS ARE NOT UNDER NWS QUALITY CONTROL. THEY ALSO MAY NOT
  REPORT WEATHER SUCH AS PRECIPITATION OR FOG.

INZ001>027-051200-
NORTHERN INDIANA

CITY           SKY/WX    TMP DP  RH WIND       PRES   REMARKS
GARY*          CLOUDY    43  43 100 N17G29    29.91R
VALPARAISO     CLOUDY    41  39  93 N14G21    29.87R
MICHIGAN CITY* CLOUDY    41  41 100 N7        29.88R
LAPORTE*       CLOUDY    45  45 100 N13       29.86R
KNOX*          CLOUDY    43  37  81 N10       29.84R
SOUTH BEND     CLOUDY    44  42  93 N13       29.85R
ELKHART*       CLOUDY    46  46 100 N5        29.84
GOSHEN         CLOUDY    46  43  89 N12       29.82R
MONTICELLO*    CLOUDY    43  39  87 N9        29.84R
LOGANSPORT*    CLOUDY    43  41  93 N5        29.83R
ROCHESTER*     CLOUDY    46  46 100 N7        29.82R FOG
WARSAW*        CLOUDY    43  43 100 N6        29.81R
ANGOLA*        CLOUDY    45  45 100 N9        29.80R
FORT WAYNE     LGT RAIN  42  39  89 NW6       29.80R
HUNTINGTON*    CLOUDY    40  39  97 CALM      29.80R
PERU/GRISSOM   CLOUDY    41  41 100 N3        29.80R
MARION*        MOCLDY    40  38  93 N6        29.81R

$$
INZ028>050-051200-
CENTRAL INDIANA

CITY           SKY/WX    TMP DP  RH WIND       PRES   REMARKS
LAFAYETTE      CLOUDY    43  39  86 N7G18     29.84R
KOKOMO*        CLOUDY    41  37  87 NE6       29.81R
MUNCIE*        CLOUDY    42  38  85 NE8       29.79R
INDIANAPOLIS   CLOUDY    43  39  86 N12       29.78R

$$
MIZ043>046-050>051-056>058-064>065-071>073-077>080-051200-
SOUTHWEST LOWER MICHIGAN

CITY           SKY/WX    TMP DP  RH WIND       PRES   REMARKS
BATTLE CREEK   CLOUDY    45  41  86 NE14G20   29.84R
BENTON HARBOR  CLOUDY    44  40  85 VRB6      29.87R
COLDWATER*     CLOUDY    45  43  93 N10G18    29.82R
HILLSDALE*     CLOUDY    45  41  88 N10G18    29.80R
HOLLAND        CLEAR    N/A N/A N/A N5        29.89R
GRAND RAPIDS   CLOUDY    44  41  89 N7        29.88R
KALAMAZOO      CLOUDY    46  41  82 N13       29.85R
STURGIS*       CLOUDY    44  42  93 N13       29.82R
THREE RIVERS*  CLOUDY    46  42  88 N7        29.85R

$$
OHZ001>008-015>018-024>025-051200-
NORTHWEST OHIO

CITY           SKY/WX    TMP DP  RH WIND       PRES   REMARKS
WAUSEON*         N/A     46 N/A N/A N13G18    29.78R HAZE
DEFIANCE       CLOUDY    47  43  86 N6        29.79R
FINDLAY        LGT RAIN  44  39  82 NW7       29.75R
TOLEDO EXPRESS CLOUDY    45  43  93 N13       29.77R FOG
TOLEDO METCALF MOCLDY    48  44  86 N9        29.77R FOG
LIMA           LGT RAIN  41  39  93 W7        29.77R

$$
AND FOR LAKE MICHIGAN COASTAL AND OPEN LAKE BUOY OBSERVATIONS

STATION/POSITION TEMP    WIND        PRES    VSBY  WAVE
                 AIR SEA DIR/SP/G                  HT/PER
                 (F)     (DEG/KT/KT) (MB)    (MI)  (FT/S)
CALUMET HARBOR    41     340/ 19/ 22 1011.7R
MICHIGAN CITY     42     360/ 23/ 25   N/A
BURNS HARBOR      43      10/ 18/ 24 1012.2R
SAINT JOSEPH      44     360/ 12/ 17 1012.2R
SOUTH LAKE BUOY   40 40   20/ 17/ 21 1012.6R         6/ 7
4 MI NW BRIDGMAN  44 46                N/A           6/ 7

$$
&&




USA.gov is the U.S. government's official web portal to all federal, state and local government web resources and services.